FLOCK 3P-44 (42033 NORAD) Tracking and Keplerian Element Data

This shows tracking and keplerian element data for the satellite.

Feedback or suggestion? Click here.




ElementValue
Catalog42033
NameFLOCK 3P-44
Epoch Orbit5409
Epoch Day46.13063687
Epoch Year2018
RAAN111.7335
Inclination97.4663
Eccentricity0.0009736
Argument of Perigee86.5441
Mean Anonmoly273.6909
Mean Motion15.23750737
Decay Rate2.48E-05
L11 42033U 17008CP 18046.13063687 .00002480 00000-0 10604-3 0 9999
L22 42033 97.4663 111.7335 0009736 86.5441 273.6909 15.23750737 54097

Live tracking and technical data element details for FLOCK 3P-44 (NORAD 42033). FLOCK 3P-44 can be tracked NOW for your location showing map with azimuth and elevation plus other details from your city location.

Track the satellite on the map from your city or location and see movement details for azimuth, elevation, latitude, longitude, range, height, and movement on the map or in text.







IsCatalogInMostPopularTable: catalog: 42033, numindb: 199
Update: records affected: 1



GetName: 42033 FLOCK 3P-44

Hit Count: updated at: Mon, 19 Nov 2018 13:49:02 GMT